Terminal Aerodrome Forecast
Issued by NWS Caribou, ME

Home | Current Version | Previous Version | Text Only | Print | Product List | Glossary On
Versions: 1 2 3 4 5 6 7 8 9 10 11 12 13 14 15 16 17 18 19
000
FTUS41 KCAR 200500
TAFCAR
TAF
KCAR 200532Z 2006/2106 17005KT P6SM BKN200
     FM201400 18012KT P6SM BKN080
     FM202000 18012G20KT P6SM VCSH OVC040=

USA.gov is the U.S. government's official web portal to all federal, state and local government web resources and services.